GEFSNE_500_meanwind_210.txt.gz
Wind_Speed
22 22 23 23 23 23 24 24 25 25 25 27 28 29 28 28 29 30 30 31 32 33 33 33 33 34 35 36 36 36 36 37 39 40 40 40 40 40
21 21 21 22 22 22 23 24 24 24 25 26 26 26 27 28 29 29 30 31 31 33 33 33 33 33 35 36 37 37 37 37 38 39 40 40 40 41
21 20 19 19 20 21 21 22 22 23 23 24 25 25 26 26 27 27 29 30 31 32 33 33 34 34 34 36 37 38 37 38 38 40 41 41 42 43
19 18 18 17 17 18 19 20 21 21 21 22 22 23 24 25 26 26 27 28 30 31 32 32 33 34 35 36 37 37 38 39 39 40 41 42 42 44
19 17 17 17 17 18 18 18 19 20 20 20 21 22 23 25 25 27 27 28 29 29 30 31 32 33 34 36 36 37 38 39 39 40 41 41 42 43
17 16 16 17 17 16 17 18 18 19 19 20 21 21 22 23 24 25 26 27 27 28 28 29 31 32 33 34 35 36 37 37 38 38 39 40 42 42
15 15 15 15 15 16 17 18 18 19 19 20 20 20 20 21 22 23 24 25 26 26 26 28 30 31 31 32 34 36 36 37 37 37 38 40 41 41
14 14 14 14 15 16 17 17 18 18 19 19 19 19 19 20 21 23 23 23 24 25 25 26 27 29 30 31 32 33 34 35 35 36 38 39 40 41
13 14 14 14 14 15 16 16 17 18 18 18 18 18 19 19 20 21 22 23 23 24 25 24 25 27 28 29 29 31 32 33 34 35 36 37 39 40
13 13 13 14 14 15 15 16 16 17 17 17 17 17 17 18 19 19 21 21 23 24 24 25 25 25 26 28 29 30 31 33 34 35 35 36 37 38
13 13 13 14 14 15 15 15 16 16 17 17 17 17 18 18 18 19 19 20 21 23 24 24 25 26 27 27 28 29 31 32 33 34 34 35 35 36
13 13 13 13 14 14 15 15 16 16 16 17 18 18 18 19 18 18 18 19 20 21 22 24 25 25 25 26 27 28 29 31 32 32 32 33 34 34
12 12 13 13 14 14 15 15 15 16 16 18 18 18 18 18 18 18 18 18 18 18 19 20 21 22 23 23 24 25 26 27 27 28 28 29 30 31
12 13 13 13 13 14 14 15 15 16 17 18 18 18 17 17 17 17 17 17 17 18 18 19 19 20 21 21 22 23 24 24 25 26 27 28 29 30
12 12 12 12 13 14 15 15 15 16 17 17 17 17 17 16 16 17 18 18 18 18 19 19 19 19 19 19 20 21 22 23 24 25 27 28 28 29
11 12 12 13 14 15 15 15 15 16 17 17 18 17 17 16 16 17 18 18 18 18 19 19 19 18 18 19 20 21 21 21 22 23 25 26 27 28
10 12 13 13 14 15 15 16 16 16 17 17 17 18 17 16 17 17 18 18 18 18 18 19 19 19 19 20 20 20 20 20 20 21 22 24 25 26
11 12 14 14 15 15 15 15 16 16 16 16 16 17 16 16 16 17 17 18 18 17 18 19 19 19 19 19 20 20 19 19 19 20 20 21 23 24
12 13 13 14 15 15 15 15 15 15 15 15 16 16 16 16 16 17 17 18 18 18 17 18 18 18 18 19 19 19 19 19 19 19 20 21 22 23
12 12 13 14 14 14 14 15 15 15 16 16 16 16 17 17 17 17 18 18 18 18 18 18 18 18 18 18 17 17 17 18 18 18 19 19 20 21
11 13 13 13 14 14 15 15 16 16 16 16 16 17 17 18 18 18 18 18 18 18 19 19 19 19 18 17 17 17 17 17 18 18 18 18 19 19
12 13 14 14 14 15 15 16 16 16 16 16 17 17 17 17 18 18 18 18 18 19 19 19 19 18 18 18 18 18 17 17 17 17 17 17 17 18
13 14 15 14 15 16 16 16 16 16 16 16 16 17 17 17 17 17 18 18 18 18 19 19 18 18 17 18 17 17 17 17 17 17 16 17 17 17

GEFSNE_500_meanwind_216.txt.gz
Wind_Speed
22 23 22 22 23 24 24 25 25 25 25 27 27 28 29 29 30 30 31 31 32 33 34 35 35 35 35 36 36 37 37 37 37 38 39 39 40 39
22 23 22 22 22 23 24 25 25 25 25 26 26 27 28 28 29 30 30 32 33 34 35 35 35 35 36 36 37 37 38 38 38 39 40 41 41 41
21 21 22 22 22 22 23 23 23 23 23 24 25 26 26 27 27 28 29 30 31 31 32 34 36 36 37 37 37 38 39 39 40 40 40 41 41 42
20 20 20 21 21 21 20 20 21 22 22 22 23 24 24 24 25 25 27 28 29 30 31 32 35 36 36 37 37 38 39 40 40 40 39 41 42 42
18 18 18 18 19 20 20 20 21 21 21 22 22 23 23 23 23 24 25 26 28 29 31 32 33 34 36 36 36 37 38 39 39 39 39 40 41 41
17 17 17 18 19 19 20 20 20 20 20 20 21 21 22 22 23 24 25 25 26 27 28 29 30 31 33 34 35 36 37 38 38 39 40 40 41 42
16 17 17 18 18 18 19 18 18 18 18 18 19 20 21 22 22 23 24 24 24 25 26 27 28 29 30 32 33 34 34 36 37 38 40 41 42 42
17 17 18 18 18 18 18 18 18 18 18 18 18 19 20 21 23 23 23 23 22 23 25 26 26 27 28 30 31 33 34 35 36 37 39 40 41 41
17 17 18 19 19 19 19 18 18 17 17 18 18 19 20 21 22 22 22 22 22 23 24 24 25 26 27 28 30 31 32 34 35 36 37 38 40 40
17 17 18 18 18 18 18 18 17 17 17 18 18 18 19 20 21 21 22 22 23 23 24 24 25 26 27 28 29 30 31 32 33 34 35 36 37 37
17 17 18 17 16 16 17 17 17 16 17 18 17 17 19 20 20 21 21 22 22 23 24 24 25 26 26 27 28 29 30 31 32 32 32 33 34 34
17 17 17 16 16 16 16 16 16 16 17 17 17 18 19 20 20 21 22 22 22 23 24 24 24 25 25 25 26 27 28 28 28 29 30 31 32 32
16 15 16 15 15 15 16 16 16 17 17 17 17 18 19 19 20 21 21 22 22 22 23 24 23 23 23 23 24 25 26 27 27 27 27 28 30 31
15 15 15 15 15 15 15 15 16 17 17 18 18 18 18 19 20 21 21 20 21 21 21 22 22 21 21 21 22 23 24 25 26 26 27 27 28 30
14 15 15 14 14 14 15 16 16 17 17 18 18 18 18 19 19 20 19 19 20 20 20 21 21 22 21 20 20 21 21 22 23 25 26 27 28 29
14 14 14 14 14 15 15 15 15 16 17 17 18 18 18 18 18 19 19 19 19 19 20 20 21 21 20 20 21 21 21 21 21 23 24 25 25 26
13 13 13 14 14 14 14 15 15 15 15 16 17 17 17 18 19 19 19 19 19 19 19 20 20 21 21 21 21 21 21 21 21 22 22 23 24 24
12 13 13 12 13 14 15 15 15 16 18 18 17 17 18 18 18 18 18 19 19 20 19 19 19 19 20 20 21 20 20 20 20 20 20 21 21 22
12 12 12 12 13 14 15 15 16 17 18 18 19 18 18 19 19 18 18 19 19 19 19 19 18 18 19 21 20 19 19 19 19 19 18 18 18 18
13 13 13 14 14 15 15 16 16 16 17 17 17 17 17 17 18 18 18 18 18 19 19 19 19 19 19 19 19 19 19 18 18 18 17 17 16 16
13 13 13 14 14 14 15 15 16 16 16 16 16 16 16 16 17 17 17 16 16 18 18 18 18 18 18 18 18 18 17 17 17 16 15 15 15 15
12 13 13 14 15 15 15 16 16 16 15 15 15 16 16 15 16 16 15 15 15 16 16 16 16 17 17 17 17 17 17 16 15 14 14 14 14 14
13 13 14 15 15 16 16 16 15 15 15 16 15 16 15 15 15 15 16 16 15 16 16 16 16 16 16 16 15 15 16 15 14 13 13 13 13 13

GEFSNE_500_meanwind_222.txt.gz
Wind_Speed
25 25 25 25 25 25 24 25 26 26 26 27 27 27 27 27 28 28 28 28 29 30 31 32 32 33 34 34 34 34 35 36 36 37 38 38 39 39
23 24 24 25 26 25 25 24 24 26 26 26 26 26 27 27 27 28 28 28 29 29 30 31 33 34 35 36 36 36 36 37 37 38 39 40 40 40
22 23 23 24 25 25 24 24 24 24 25 26 26 26 27 27 26 27 27 27 28 29 30 31 32 34 35 35 36 37 37 37 38 38 39 40 41 41
22 22 23 23 23 23 24 24 24 24 24 24 25 26 26 26 26 26 26 26 28 29 29 30 31 33 34 35 36 37 38 38 39 39 40 40 41 42
21 21 21 23 23 23 23 23 23 23 24 24 24 24 24 25 25 26 26 27 28 29 29 29 30 31 32 34 36 37 38 38 39 39 40 41 42 43
20 20 21 21 22 22 22 23 23 23 23 23 23 23 23 24 25 26 27 27 27 27 28 28 29 30 31 32 34 35 36 36 37 38 39 40 41 42
20 21 20 20 20 21 22 23 23 23 23 23 23 23 23 24 25 26 26 26 26 27 28 28 29 29 29 30 31 32 34 35 36 37 39 40 40 41
20 19 20 20 20 21 21 21 21 22 23 23 22 23 23 24 24 24 25 26 27 28 28 28 29 29 30 29 30 31 33 34 36 37 38 39 40 41
19 20 20 20 21 21 21 21 21 21 22 21 21 21 22 22 23 24 25 25 26 26 27 28 28 28 29 30 30 30 31 33 34 35 37 37 38 39
20 19 19 19 20 20 20 20 20 20 20 20 20 21 22 22 22 22 23 24 24 24 26 27 28 29 29 30 30 30 30 31 32 33 35 35 36 37
18 18 18 19 20 19 19 18 18 19 19 20 20 20 21 21 21 22 22 23 23 24 25 26 27 28 28 28 28 29 29 29 30 32 33 33 34 34
17 17 17 17 18 19 20 19 18 18 19 19 20 20 20 21 21 21 22 23 23 24 24 25 26 27 26 26 27 27 27 28 28 29 30 31 32 32
16 17 17 16 17 18 18 18 18 19 19 19 20 20 20 21 22 22 22 23 23 24 25 25 26 26 26 26 26 26 26 27 27 27 27 29 30 31
15 16 17 17 17 17 18 18 19 19 19 19 20 20 21 21 22 22 23 23 23 24 24 24 25 25 25 25 25 25 26 26 27 26 26 27 28 29
15 15 16 16 17 18 18 19 19 19 19 20 20 20 21 22 22 23 23 23 23 23 23 24 24 24 24 24 24 25 26 26 25 25 25 25 25 26
14 15 15 15 15 16 17 18 19 20 20 20 20 20 21 20 21 21 21 22 22 21 22 22 22 22 23 23 23 24 25 25 24 23 23 23 23 24
13 13 13 14 15 15 16 18 19 19 19 19 19 19 19 19 19 20 20 20 20 20 21 21 22 22 22 22 23 23 23 23 23 22 22 22 22 23
13 13 13 14 14 15 15 16 16 17 18 18 17 18 18 18 19 19 19 19 19 19 19 20 21 21 22 21 21 21 22 22 22 21 21 21 21 22
12 12 12 13 14 14 14 15 15 16 16 16 16 17 17 17 18 19 19 19 19 19 19 20 20 20 20 20 20 20 21 21 21 20 20 20 20 20
11 11 12 12 13 14 14 14 15 15 15 16 16 16 17 17 18 19 19 19 19 19 20 20 20 20 19 18 19 19 19 18 19 19 18 18 17 17
11 12 12 12 13 13 13 13 14 14 14 15 16 17 17 18 19 19 20 19 19 19 20 19 19 18 17 17 17 16 17 16 16 16 16 16 16 16
11 11 12 12 12 12 12 12 12 13 13 14 15 16 17 18 19 19 19 18 18 18 18 18 17 16 16 16 16 15 16 15 15 15 15 15 15 14
12 12 12 12 11 11 11 12 13 13 14 14 15 15 16 17 18 18 17 16 16 17 17 17 16 15 15 15 15 14 14 13 13 14 14 14 14 15

GEFSNE_500_meanwind_228.txt.gz
Wind_Speed
24 24 24 24 24 24 25 25 24 24 25 25 24 25 26 26 26 27 28 29 29 29 30 30 30 31 31 31 31 31 31 32 33 33 33 34 33 33
25 24 23 24 25 25 25 25 25 25 24 24 24 24 25 26 27 27 28 29 29 29 29 29 30 31 31 32 32 33 32 33 33 33 33 34 34 35
24 24 24 24 25 25 25 25 25 25 24 24 23 24 25 26 27 27 28 28 29 29 29 29 30 30 31 32 32 33 33 33 33 34 35 35 36 37
24 24 24 25 26 26 25 25 25 24 24 23 23 23 24 24 25 26 27 27 28 28 29 29 30 30 31 32 32 32 32 32 33 34 35 36 37 39
24 24 25 25 25 25 25 24 23 22 23 23 22 23 23 24 25 25 25 26 27 28 29 29 30 31 31 31 31 31 32 32 33 35 36 37 39 40
23 24 25 25 25 25 24 24 24 23 23 23 23 23 22 23 24 25 25 26 27 28 29 29 29 30 30 31 31 31 31 32 33 35 36 37 39 40
23 23 23 23 24 23 23 23 22 23 23 23 22 23 22 22 23 23 25 25 26 26 27 27 28 29 30 31 31 31 32 33 34 35 36 37 38 40
22 22 22 22 22 21 21 21 21 21 22 23 22 22 22 22 23 23 24 25 26 26 27 26 27 28 29 30 31 32 32 33 34 35 36 37 37 37
20 20 19 19 19 18 18 19 20 20 21 22 23 23 23 23 23 24 24 25 25 26 27 27 28 28 29 30 31 32 32 33 34 34 34 34 34 34
19 18 17 17 18 18 18 19 20 20 21 21 22 22 23 23 24 24 24 24 24 26 27 28 27 28 28 29 30 31 32 33 33 33 33 32 32 32
17 17 17 17 17 18 18 19 20 20 20 21 22 23 23 23 23 24 24 24 25 26 27 27 27 27 27 28 29 30 31 31 31 30 30 31 31 31
17 17 18 18 19 18 18 19 20 21 20 21 22 23 23 22 23 24 24 25 25 25 26 26 26 26 27 28 28 29 29 29 29 29 29 29 29 29
17 18 19 19 20 20 20 20 21 21 21 21 22 22 22 22 23 23 24 24 24 24 24 25 26 26 27 27 28 28 28 28 28 28 28 28 27 27
17 17 18 19 20 20 20 20 20 21 21 21 21 21 21 21 22 23 23 24 23 23 24 24 25 25 26 26 26 26 26 26 26 26 26 26 26 26
17 17 18 18 18 19 19 20 20 21 20 21 21 21 21 21 22 22 22 23 22 22 23 24 24 24 25 25 25 25 24 24 24 24 24 25 25 25
17 17 17 16 17 18 19 20 20 19 20 20 20 20 21 21 22 22 22 22 22 22 22 23 23 23 23 24 24 23 23 23 23 22 22 23 24 24
16 15 16 16 17 18 18 18 19 19 20 20 20 20 20 20 20 21 22 21 21 21 21 21 22 22 22 23 23 22 22 22 22 22 22 22 22 22
15 15 15 15 16 16 17 18 18 18 18 19 20 20 19 19 19 20 20 20 20 21 21 22 22 22 22 22 22 22 22 22 22 21 21 21 20 20
14 14 14 14 14 15 15 16 16 16 17 17 18 19 19 19 19 19 20 20 20 20 21 22 22 23 22 22 21 21 21 21 21 20 20 20 19 19
13 13 14 14 14 13 14 15 16 16 17 18 18 18 18 18 18 19 19 20 20 20 20 20 21 22 22 22 21 21 21 20 19 19 19 19 19 18
13 14 14 14 14 14 15 16 17 16 17 17 17 17 18 17 18 18 18 19 19 20 20 21 21 20 20 20 21 21 20 19 18 18 19 18 18 18
14 14 13 13 14 15 15 16 16 17 17 17 17 17 18 17 18 18 18 18 19 19 19 20 20 19 19 19 19 19 18 18 18 18 17 17 16 16
15 14 13 13 14 14 13 14 15 16 17 17 18 18 18 18 18 18 18 18 17 17 17 17 17 17 18 18 18 17 16 16 17 17 15 14 14 14

GEFSNE_500_meanwind_234.txt.gz
Wind_Speed
26 26 27 27 27 27 26 27 27 27 27 28 28 28 28 28 27 27 28 28 29 28 29 30 30 29 29 29 29 29 29 30 30 30 30 30 30 30
27 27 27 27 28 27 26 26 26 26 25 25 26 27 27 27 28 28 28 28 28 29 29 29 30 30 29 29 30 30 30 30 30 31 31 30 31 31
28 28 28 28 28 28 26 26 25 26 25 25 24 25 25 25 27 27 28 28 29 29 29 30 30 30 30 30 30 30 31 31 32 32 31 32 32 33
27 27 27 27 27 27 26 26 25 25 25 25 24 25 24 24 25 27 27 28 28 29 29 30 30 30 30 30 30 30 30 31 31 32 33 33 33 33
27 26 26 26 26 26 25 25 25 25 25 25 25 24 24 24 25 26 27 27 28 29 29 30 30 30 31 31 31 30 31 31 32 32 33 34 34 34
25 25 25 24 24 25 26 26 25 25 25 25 24 23 23 24 25 26 27 27 28 29 30 31 31 31 31 31 31 31 31 31 31 32 32 33 34 35
24 24 24 24 24 25 25 26 26 25 25 24 24 23 23 24 24 24 25 26 26 27 28 29 30 30 30 31 31 31 32 31 31 32 33 33 34 35
23 22 23 24 23 24 24 24 25 25 25 24 24 24 23 23 23 23 24 24 25 26 27 28 28 29 30 30 31 31 31 31 31 32 33 34 34 35
22 22 23 23 22 22 23 23 23 24 24 24 24 23 22 22 22 22 23 24 24 25 27 28 29 29 29 29 30 31 31 31 32 32 33 34 35 36
20 21 22 23 22 23 23 23 23 23 23 23 23 22 21 22 22 23 23 23 24 26 27 28 28 28 28 29 29 30 31 32 32 33 34 34 36 37
19 20 20 21 22 23 23 23 23 22 22 23 23 23 23 22 22 23 24 24 24 25 26 27 27 27 28 28 29 30 31 32 32 33 34 35 35 36
19 19 19 19 20 21 22 22 23 23 23 23 23 23 23 23 24 25 25 24 24 24 24 25 26 27 27 28 29 30 31 32 32 32 32 32 33 33
18 18 19 19 19 21 22 23 23 24 24 24 24 25 25 25 25 25 25 24 23 23 24 25 25 26 28 28 29 30 30 30 30 30 30 30 30 30
18 18 18 18 19 19 20 21 23 23 23 23 24 24 24 24 24 24 23 23 23 23 24 25 25 25 26 27 28 28 28 28 28 27 27 28 29 29
17 17 17 17 17 18 19 20 21 22 22 22 22 22 23 23 24 24 24 23 23 24 24 24 25 25 25 25 26 25 25 26 26 26 27 27 28 28
17 17 16 16 16 17 18 19 19 19 20 20 21 21 22 22 22 23 24 23 23 23 23 23 24 24 24 24 23 23 23 24 24 25 26 26 27 27
16 15 14 14 15 15 16 17 18 19 20 20 20 21 21 21 22 23 23 23 22 22 22 22 22 22 22 22 21 22 23 24 25 25 26 25 25 25
15 14 14 14 15 16 17 17 18 18 19 20 20 21 21 22 22 23 23 22 22 22 22 22 21 21 20 21 22 22 23 23 24 24 25 25 24 24
14 14 14 15 16 17 17 17 18 18 18 19 19 20 21 21 22 22 22 23 22 22 21 21 21 21 21 21 21 21 22 22 23 23 23 24 24 24
15 15 15 15 16 16 17 17 18 18 18 18 19 20 20 21 21 22 22 22 23 22 22 22 22 22 21 21 21 21 21 22 22 22 22 23 23 23
14 14 14 14 14 15 16 16 17 17 17 18 19 20 20 21 21 21 22 22 22 22 22 22 22 21 21 21 21 21 21 21 22 22 22 22 22 21
14 14 14 14 14 15 16 16 16 16 16 17 18 18 19 19 20 20 21 21 21 22 22 22 21 21 20 20 20 20 20 20 21 21 21 21 21 19
15 14 13 13 14 14 14 15 15 15 16 16 16 17 18 18 19 20 20 20 20 20 20 20 20 20 20 19 20 19 19 20 20 20 20 19 19 18

GEFSNE_500_meanwind_240.txt.gz
Wind_Speed
28 28 29 28 28 28 28 28 28 28 28 28 28 28 29 28 27 27 27 27 27 28 29 28 29 29 28 28 28 28 28 28 28 28 28 28 28 28
30 30 29 29 30 30 29 30 30 29 28 28 28 28 29 28 28 28 27 27 27 27 29 30 30 30 29 29 29 28 29 29 29 29 29 29 29 29
30 30 31 31 31 30 30 30 30 29 29 29 28 28 28 28 27 28 28 28 28 27 28 30 31 31 31 30 30 30 29 30 30 30 30 30 30 30
29 29 30 31 31 30 30 30 29 29 29 29 28 28 27 27 28 28 29 29 29 29 29 30 31 31 31 31 31 31 30 30 30 30 30 30 31 32
28 28 29 29 29 29 29 29 28 28 28 27 27 27 27 28 29 29 29 30 30 29 29 31 32 32 32 32 32 31 31 31 30 30 30 31 31 32
26 27 27 27 28 28 28 28 28 28 28 27 27 27 27 28 29 29 29 29 29 30 30 30 32 33 33 32 32 32 32 31 31 31 32 32 32 33
25 25 26 26 27 28 29 29 28 28 28 28 27 27 27 27 29 29 29 30 30 30 30 30 31 32 33 33 33 32 33 32 32 32 32 32 32 32
25 25 26 26 27 27 28 28 28 28 28 28 27 27 27 27 28 28 28 29 29 30 30 30 30 30 31 32 33 33 33 33 33 32 32 32 32 33
26 26 27 27 28 28 29 29 29 29 29 28 28 27 27 28 28 28 28 28 29 29 30 29 29 30 31 31 31 32 33 33 33 33 32 32 32 32
24 25 25 26 26 27 29 29 29 29 29 29 28 27 27 27 28 28 28 28 28 28 28 28 28 29 29 30 30 30 31 32 32 32 32 32 33 33
21 22 24 24 24 25 26 26 27 28 28 28 28 28 27 27 27 28 28 28 27 27 28 28 28 29 29 29 29 29 29 30 30 30 31 32 33 33
21 21 22 23 23 24 24 24 25 26 27 28 27 27 27 27 27 27 27 27 27 27 27 28 28 28 28 28 28 29 29 30 30 31 31 32 32 32
20 20 21 22 22 23 23 23 24 25 26 26 26 25 25 26 26 26 26 26 26 26 27 27 27 28 28 27 28 29 30 31 31 31 31 31 31 32
20 20 20 20 21 21 21 21 22 22 23 23 24 24 24 25 24 25 25 25 25 25 26 26 26 27 28 28 28 29 30 31 31 31 31 30 30 30
19 19 19 19 19 19 18 18 18 19 20 21 21 22 23 23 23 23 24 25 25 24 24 25 25 26 27 27 28 28 28 29 30 30 30 30 30 29
18 19 19 19 18 18 18 18 18 18 19 20 20 21 21 22 22 22 22 23 23 24 24 24 25 25 26 26 27 28 28 28 28 28 28 28 29 29
17 17 18 18 17 17 17 17 18 18 18 19 19 19 19 20 21 21 21 21 22 22 23 24 24 25 26 26 26 27 27 27 27 27 28 28 28 29
17 17 16 16 17 17 17 17 18 18 19 19 18 18 18 19 20 21 21 21 22 23 23 24 24 25 25 25 25 26 26 27 27 28 27 27 28 28
17 16 16 16 17 17 17 17 17 17 17 18 18 18 18 19 19 20 20 21 21 22 23 23 24 25 25 25 25 26 26 26 26 26 26 27 27 27
18 17 16 16 17 17 16 16 17 17 17 17 18 18 18 18 19 19 20 20 21 21 22 23 23 24 24 24 24 24 25 25 25 25 25 25 25 25
19 18 17 17 16 16 17 17 17 17 17 17 17 18 18 18 19 19 19 20 20 21 21 22 22 22 23 23 23 23 23 24 24 24 24 24 24 25
18 18 18 17 17 17 17 17 17 17 17 18 18 18 18 18 19 20 20 20 20 20 21 22 22 22 22 22 22 22 23 23 23 23 23 24 24 24
18 17 17 17 17 17 16 16 16 16 17 17 17 18 18 19 19 20 20 20 20 20 21 22 23 23 22 22 22 21 22 23 22 22 22 22 22 22

GEFSNE_500_meanwind_246.txt.gz
Wind_Speed
28 29 29 30 30 31 31 31 32 31 31 31 31 30 30 30 31 31 30 30 30 30 30 29 29 28 29 29 28 28 29 30 29 28 28 29 29 29
29 30 30 31 31 32 32 31 31 31 30 30 30 30 30 30 31 31 31 31 30 30 30 30 29 29 29 29 29 28 29 31 30 28 28 28 29 29
30 31 31 31 31 31 31 31 31 31 30 30 31 30 30 31 30 32 32 32 31 30 30 31 30 30 30 30 30 29 29 30 31 30 29 29 29 30
29 30 30 30 30 30 30 30 31 31 31 31 31 31 31 31 31 31 31 32 31 31 31 31 31 30 30 30 30 30 30 31 32 31 31 31 30 30
28 28 28 28 28 29 29 30 30 30 31 31 32 32 32 32 32 32 32 32 31 31 32 32 31 31 31 31 31 31 31 32 32 32 32 31 30 30
27 27 27 27 27 28 29 29 29 30 31 31 31 31 32 32 32 33 32 31 31 32 32 32 32 31 31 31 31 31 32 32 33 34 33 32 31 31
26 27 27 27 28 28 28 28 29 29 30 30 30 30 31 32 32 32 32 31 32 32 32 33 33 32 31 31 31 32 32 33 33 33 33 32 31 32
26 27 27 28 28 28 28 29 29 29 29 29 29 29 30 30 31 32 32 31 31 31 32 32 32 31 31 31 31 32 32 32 32 32 33 32 32 32
25 26 27 28 28 29 29 29 29 29 28 28 28 29 29 29 30 30 30 30 30 30 31 31 31 31 31 31 31 31 31 31 32 32 32 33 33 33
25 25 26 26 27 27 27 27 28 27 27 27 28 28 28 28 28 29 28 28 29 29 30 29 29 30 30 30 31 31 32 32 32 32 32 32 32 32
23 23 24 25 25 26 26 26 27 27 27 27 27 28 28 28 28 28 28 29 29 29 29 29 29 30 30 30 30 31 31 32 32 32 31 31 32 32
22 22 23 24 24 24 25 25 25 25 26 26 27 27 27 27 27 27 28 28 28 29 29 29 29 30 30 30 31 31 31 30 31 31 31 32 32 32
22 23 23 23 23 23 23 23 24 24 24 25 25 25 25 25 26 26 27 28 28 28 29 29 29 29 29 29 30 30 30 30 31 31 32 32 32 32
22 23 23 23 22 22 22 23 23 24 24 24 24 24 24 25 25 25 25 26 28 28 29 29 29 28 28 28 28 28 29 30 31 31 32 32 31 31
21 22 23 23 24 23 23 22 23 23 23 23 22 23 23 22 22 23 23 24 25 26 27 27 27 27 27 27 27 27 28 29 30 31 31 31 31 31
21 21 21 22 22 22 22 22 22 22 23 22 21 21 21 21 21 21 22 22 22 23 24 25 26 25 26 26 26 26 27 28 29 29 29 30 30 30
21 21 21 21 21 22 21 21 21 21 21 20 19 19 20 20 20 20 21 21 21 21 21 22 24 25 25 26 26 26 26 26 26 27 27 28 29 30
21 21 21 21 21 21 21 20 19 19 19 20 19 20 20 20 21 21 21 21 20 20 20 21 22 23 24 25 25 26 26 26 26 26 27 28 28 28
21 21 21 21 21 21 20 20 20 19 19 20 20 20 20 20 21 21 21 20 20 20 21 22 23 23 23 23 24 25 25 26 26 26 27 28 28 28
20 20 20 19 19 19 19 19 19 19 19 19 19 19 20 20 21 21 21 21 21 21 22 22 23 24 24 24 24 24 24 25 25 25 26 27 28 28
19 19 19 18 18 18 18 18 18 18 18 19 19 19 20 21 21 21 21 21 21 22 22 23 23 24 24 24 24 24 24 24 24 25 26 26 27 27
19 19 19 19 18 18 18 18 18 18 18 18 18 19 19 20 21 22 21 21 22 22 22 22 23 23 24 24 23 23 23 23 23 24 25 26 27 26
18 18 19 19 19 19 19 19 19 19 19 20 20 20 20 20 21 21 22 22 23 23 22 22 22 23 23 22 22 23 23 23 23 24 25 25 26 26

GEFSNE_500_meanwind_252.txt.gz
Wind_Speed
29 29 29 30 30 30 30 30 29 28 28 28 29 28 28 28 28 28 28 27 28 29 29 29 29 29 29 29 29 29 28 28 29 28 28 28 29 29
28 29 29 30 30 30 30 30 29 28 28 28 29 29 29 29 28 28 28 28 28 29 29 29 29 29 29 29 29 29 29 28 28 28 28 28 29 28
27 28 28 29 29 30 30 30 29 29 28 28 28 29 29 29 28 29 29 29 29 29 30 30 30 29 30 29 29 28 28 27 27 28 28 29 29 29
27 27 27 27 28 28 29 28 28 28 28 28 29 29 29 29 30 29 29 30 30 30 31 31 31 30 30 30 29 29 28 28 28 27 28 28 28 29
25 25 25 26 27 27 28 28 28 28 28 29 29 29 29 30 30 30 30 30 30 31 31 31 31 30 30 30 29 29 29 29 29 29 28 28 28 28
24 24 25 26 26 27 28 28 28 28 29 29 29 29 29 29 30 30 30 30 30 30 31 31 31 30 30 30 29 29 29 29 29 29 28 28 28 29
25 25 25 25 26 27 27 27 27 28 29 29 29 29 29 29 30 30 30 30 29 29 29 30 31 31 30 30 29 29 29 29 29 28 28 28 28 28
25 25 25 26 27 27 27 27 28 29 29 29 29 29 29 29 29 30 29 29 29 29 29 29 29 30 30 30 30 30 30 29 29 29 29 29 29 29
25 25 25 25 26 26 27 27 28 28 28 28 28 28 28 28 29 29 29 29 28 28 29 28 29 29 29 29 29 29 30 30 30 30 29 29 29 29
25 25 25 25 26 26 25 25 26 26 27 27 27 27 28 28 29 29 29 30 29 29 29 29 29 29 29 29 29 29 30 31 31 30 29 29 29 30
25 25 25 25 25 26 26 25 25 25 26 26 27 27 27 27 28 28 29 29 29 29 29 29 29 29 28 28 30 30 30 30 30 29 29 29 30 30
25 26 26 26 26 26 25 25 25 24 24 24 24 25 26 26 26 27 28 28 28 28 28 29 29 29 28 28 29 29 29 29 29 28 29 29 30 31
25 25 25 25 25 25 24 25 25 25 24 25 25 25 26 26 26 26 26 26 26 26 26 28 28 28 28 28 27 27 28 28 28 28 28 28 29 29
24 25 24 24 25 25 25 25 25 26 26 25 25 25 25 25 25 24 24 24 25 25 25 26 26 27 27 26 26 26 27 27 27 27 27 27 28 28
25 25 24 23 24 24 25 25 26 26 26 26 26 25 25 24 23 23 24 24 23 24 24 25 25 25 25 25 25 25 25 26 27 27 27 28 28 28
24 23 23 23 24 24 24 24 24 25 25 26 25 25 25 24 23 23 23 23 23 23 23 23 23 23 24 25 25 24 25 26 27 27 27 27 27 27
23 23 23 23 23 24 24 24 25 25 25 24 24 24 24 23 23 23 22 22 22 22 21 21 22 22 23 24 25 25 25 25 25 26 26 26 26 27
24 24 23 23 23 24 24 24 24 24 24 24 23 23 23 23 23 23 23 22 22 22 22 21 22 23 24 24 25 25 25 25 25 25 26 26 25 25
24 24 24 24 24 24 24 24 24 25 25 25 24 23 22 22 22 22 23 23 23 23 22 22 23 23 24 24 24 24 24 25 25 25 26 26 25 25
25 24 24 24 25 25 24 24 24 24 24 24 24 23 22 22 21 21 22 22 23 23 23 23 23 23 22 23 24 24 25 26 25 25 25 25 25 25
24 24 24 24 24 24 24 24 24 24 24 23 23 22 22 22 22 22 22 22 22 23 22 23 23 23 23 23 24 24 25 26 26 25 25 25 25 25
23 23 23 23 23 23 23 23 22 22 22 23 23 23 22 22 22 22 22 22 22 22 21 21 22 23 23 24 24 24 24 24 24 25 25 25 25 25
22 22 22 23 22 22 21 21 21 21 21 21 22 22 22 22 22 22 22 22 22 22 21 21 21 21 21 22 23 24 24 23 24 24 25 25 25 25

GEFSNE_500_meanwind_258.txt.gz
Wind_Speed
25 25 26 27 27 27 27 26 27 27 26 27 27 28 29 29 28 29 29 29 29 29 29 29 29 29 28 28 27 28 28 28 28 29 29 29 29 29
26 26 27 27 27 26 27 27 28 28 27 27 28 28 28 28 28 28 28 29 29 29 29 30 30 30 29 29 29 28 29 29 29 29 30 30 30 30
27 27 27 27 26 26 26 26 26 27 27 27 27 28 29 28 28 28 28 28 29 29 29 30 31 30 30 30 30 29 28 29 29 29 29 29 30 30
26 26 26 26 26 26 26 26 27 28 28 27 27 27 27 27 27 27 27 27 28 30 30 30 31 31 30 30 30 29 29 29 29 30 29 29 30 30
26 25 26 27 27 27 27 28 28 28 28 27 27 27 27 28 28 27 27 27 28 29 29 30 31 31 30 30 30 30 30 30 30 29 29 29 30 30
27 26 26 27 26 27 28 28 28 28 27 27 27 28 28 28 28 28 28 28 28 28 28 28 29 30 30 30 31 31 31 30 30 30 30 30 30 30
27 27 27 27 27 27 28 28 28 28 27 27 27 27 28 28 28 28 28 28 28 29 29 29 30 30 30 30 31 31 31 31 31 30 30 30 30 30
27 27 28 29 29 28 28 28 28 27 27 27 27 28 28 28 28 28 28 28 28 28 29 29 30 30 31 30 30 30 30 30 30 30 30 29 30 29
26 27 28 29 29 29 29 28 28 28 28 27 27 28 28 28 28 29 29 29 28 28 29 29 29 30 30 30 30 30 30 30 30 30 30 30 30 30
26 27 27 27 28 28 28 28 28 28 28 28 28 27 28 28 29 30 29 29 29 29 29 29 30 30 31 30 31 31 31 31 30 30 30 30 30 30
26 26 26 26 26 27 28 28 28 28 28 28 29 28 28 29 29 30 30 30 29 29 30 30 30 30 30 30 31 31 31 31 31 31 31 31 30 31
26 25 26 26 25 26 26 27 27 28 28 28 29 29 29 29 29 29 29 29 28 28 29 30 30 30 30 30 31 31 31 31 30 31 31 31 31 31
25 25 25 26 26 26 26 26 26 27 27 28 28 28 29 29 29 28 28 28 29 29 29 30 31 31 31 30 31 32 32 31 30 30 31 31 32 31
25 25 25 25 25 25 25 25 26 27 27 27 27 28 28 28 29 29 29 28 28 29 30 30 30 30 31 30 31 31 32 31 30 30 30 30 31 31
25 24 23 23 24 24 24 24 25 26 27 27 26 26 27 28 29 30 30 29 29 28 29 29 29 30 30 29 30 31 31 31 30 30 30 30 29 30
25 24 23 23 23 23 23 24 25 26 26 27 26 26 26 26 27 28 29 30 29 28 28 28 28 28 28 28 28 28 29 29 29 29 29 29 29 29
24 23 23 23 23 24 24 24 25 26 26 27 28 27 27 27 28 28 28 28 28 28 28 28 28 28 28 29 28 28 28 28 28 29 29 29 29 29
23 23 23 24 24 25 25 25 26 27 27 27 27 27 27 28 28 28 28 28 28 28 28 28 28 28 28 27 27 27 27 27 28 28 28 28 28 29
22 22 22 23 24 25 25 26 26 26 26 26 27 27 27 28 28 28 28 27 27 27 26 27 27 27 27 27 27 26 27 28 28 28 28 28 28 29
22 22 22 23 23 24 25 25 25 25 25 26 26 26 27 26 26 26 25 25 25 25 26 26 26 26 27 27 27 27 28 28 28 28 28 28 28 28
21 22 22 23 24 24 24 24 24 25 25 25 25 26 26 25 25 24 23 23 24 24 25 25 25 25 26 27 27 27 28 28 28 28 28 28 28 28
21 22 22 22 23 24 24 24 24 23 23 24 24 23 23 23 23 23 22 22 22 23 24 24 24 24 25 26 26 27 28 28 28 29 29 29 29 29
22 22 22 23 23 23 23 22 22 21 21 21 21 21 21 21 20 20 20 22 22 23 24 24 24 24 24 25 26 27 27 28 28 29 29 29 30 29

GEFSNE_500_meanwind_264.txt.gz
Wind_Speed
25 25 26 26 27 27 27 27 26 26 26 26 27 28 29 29 30 30 31 31 31 31 30 31 31 32 31 31 31 30 30 30 30 31 31 30 29 29
26 26 27 28 28 29 29 28 27 28 27 27 28 28 29 30 30 31 31 31 32 32 31 31 32 32 32 32 32 31 31 31 30 31 31 31 30 30
28 27 28 29 30 29 29 28 28 29 29 28 28 28 29 30 31 31 31 31 31 31 32 31 31 32 32 33 33 32 32 32 31 31 31 31 30 30
27 28 28 28 28 29 29 30 30 30 30 29 29 29 30 31 32 32 32 32 31 31 32 32 31 32 33 33 33 33 33 33 32 31 32 31 31 30
27 28 28 29 28 29 30 31 31 31 31 31 31 31 31 31 32 32 33 33 32 32 32 32 32 33 33 33 33 33 33 33 32 32 32 32 32 32
28 29 29 29 29 30 30 31 31 32 32 32 32 32 32 32 32 32 32 32 32 33 33 33 33 33 33 33 33 33 33 33 33 33 33 33 33 33
28 29 29 29 29 29 29 30 30 31 32 32 32 33 33 33 33 33 32 31 31 31 32 32 32 33 33 33 34 34 34 34 34 34 34 34 33 33
28 28 27 27 27 28 29 29 29 30 30 31 32 33 33 32 32 32 31 31 31 30 31 31 32 32 32 33 33 34 34 34 34 34 34 34 34 34
26 27 27 27 27 28 28 28 29 29 30 31 30 30 31 31 31 31 32 31 31 31 31 31 31 32 33 33 33 34 34 34 34 34 34 35 35 34
26 26 26 26 26 27 27 28 29 29 29 29 28 28 29 29 30 30 31 31 31 31 31 31 32 33 33 33 34 34 34 35 35 35 35 35 35 34
27 26 26 26 26 26 27 28 29 30 29 29 28 29 29 28 28 29 30 31 31 32 32 33 32 32 34 34 35 36 35 35 35 36 35 35 35 34
27 27 27 26 26 27 27 28 28 29 29 29 29 29 29 29 29 30 30 30 31 32 33 34 33 33 33 34 35 35 36 35 35 35 35 34 34 33
27 27 28 28 28 28 28 27 27 27 28 28 29 29 30 30 30 31 31 31 31 32 32 33 32 32 32 32 34 34 34 34 34 34 35 34 34 32
27 27 28 28 28 28 28 27 27 27 28 28 28 29 30 31 31 31 31 31 31 31 31 31 30 31 31 31 31 32 33 33 33 33 34 33 33 33
26 26 26 26 26 26 26 27 27 28 28 28 29 29 30 31 31 30 31 31 32 32 31 31 31 29 29 30 30 31 31 31 31 32 32 32 31 31
26 26 25 25 25 26 26 27 27 27 28 29 29 29 29 30 30 31 31 31 30 31 31 31 32 31 29 28 29 29 30 30 30 31 30 30 30 29
26 25 25 25 26 27 27 26 27 27 28 28 28 28 29 29 30 31 31 31 30 30 30 30 30 30 30 29 29 28 29 29 29 30 30 30 29 29
26 25 25 25 26 26 26 26 26 27 27 28 28 28 29 29 30 31 31 31 30 30 30 29 29 29 29 30 30 30 29 28 29 30 30 30 29 29
26 26 25 25 25 25 26 26 26 26 27 28 28 29 29 30 30 30 30 31 30 30 30 30 30 30 29 29 29 30 29 28 28 28 29 29 29 29
26 26 26 25 25 25 25 25 26 27 27 28 29 29 29 29 29 29 29 29 28 28 28 29 30 30 29 29 29 28 28 28 27 28 28 29 29 29
26 26 25 25 25 25 25 25 26 26 27 27 28 27 27 27 27 26 26 27 27 27 26 27 28 29 29 28 28 27 27 27 27 28 28 29 29 29
25 25 24 24 24 24 24 25 25 26 26 26 25 25 25 25 25 25 24 24 25 25 26 26 27 28 28 27 26 26 26 27 27 27 28 28 28 28
24 24 23 24 24 24 25 25 25 25 24 24 23 23 23 23 23 24 24 24 25 26 26 26 26 27 27 26 26 26 26 26 26 26 27 27 27 27

GEFSNE_500_meanwind_270.txt.gz
Wind_Speed
24 25 25 25 26 27 29 29 28 29 29 30 30 30 30 31 31 31 32 32 32 32 32 32 32 32 33 32 32 32 32 32 32 31 31 31 31 30
26 27 27 27 28 28 29 29 29 29 29 29 30 30 30 31 31 32 32 32 32 33 33 33 33 33 33 33 33 33 33 33 32 32 32 32 32 31
28 27 27 28 29 29 29 29 29 29 30 30 30 30 31 31 31 32 32 33 33 33 34 34 34 34 34 34 34 34 33 32 33 33 32 32 31 31
27 27 27 28 28 28 28 29 29 30 30 30 30 31 32 32 31 32 32 33 34 34 34 35 34 34 34 34 34 34 34 33 33 32 32 32 31 31
27 27 27 27 28 28 28 29 29 29 29 31 31 31 32 32 32 32 32 33 33 34 34 35 35 34 34 34 34 34 34 33 33 33 33 33 32 32
26 26 26 27 27 27 28 29 29 30 30 31 31 31 32 32 32 32 32 32 33 33 34 34 34 35 34 34 34 34 34 34 34 34 34 33 33 33
24 24 25 26 26 27 27 28 29 30 31 32 32 31 31 32 32 32 32 32 32 32 33 33 33 34 34 34 34 34 34 34 35 35 35 34 34 34
24 25 26 26 26 27 28 28 29 30 30 31 31 31 31 31 31 31 30 30 31 32 33 33 33 32 33 33 33 33 33 34 35 36 36 36 36 36
25 25 25 26 26 27 27 28 28 29 30 30 30 31 30 30 30 30 30 30 31 31 32 32 32 32 33 33 33 34 34 35 36 37 37 37 38 38
26 26 26 26 26 27 27 27 28 28 29 29 29 30 30 30 31 31 31 31 31 31 32 31 32 32 32 33 33 33 34 34 35 36 36 37 37 38
24 25 25 26 27 27 27 27 28 28 28 28 28 28 29 30 31 32 32 32 31 31 31 32 32 32 33 32 33 33 33 34 34 35 35 36 37 38
24 24 25 25 26 26 27 27 27 27 28 28 28 29 30 31 32 33 33 32 32 32 32 32 32 32 32 32 33 33 33 33 34 35 35 36 37 37
24 25 25 26 27 27 27 27 27 27 27 28 29 29 30 31 32 32 33 33 33 32 32 33 32 32 33 32 32 32 32 32 32 33 33 34 34 36
25 26 26 26 26 27 27 27 27 27 27 28 28 29 30 31 31 32 32 33 33 33 33 33 33 33 34 34 33 33 33 33 32 32 31 32 32 33
26 26 26 26 26 26 27 27 28 28 28 28 28 28 29 31 31 32 32 33 33 33 33 33 33 33 34 33 33 33 33 33 33 32 32 31 31 32
26 26 26 26 26 26 27 27 28 28 28 28 29 29 30 31 31 31 32 33 33 33 33 33 33 33 33 33 33 33 33 33 32 32 31 31 31 31
26 26 26 26 27 27 27 28 28 28 29 29 29 30 31 31 31 30 31 32 32 33 33 33 33 33 32 32 32 33 33 32 31 31 30 30 29 29
26 26 27 27 28 28 29 29 28 29 29 29 30 30 30 30 30 31 31 31 31 32 32 32 32 32 32 32 31 31 31 32 31 30 29 29 28 28
27 27 27 27 28 29 29 29 28 29 29 29 29 29 30 30 30 30 31 31 31 31 31 31 31 30 30 31 31 31 30 30 30 30 30 29 28 27
26 26 27 28 28 28 28 28 27 27 27 27 27 28 29 29 29 29 29 30 30 30 30 29 29 29 28 28 29 30 31 30 29 29 29 27 27 27
26 26 27 27 28 27 27 26 26 25 26 26 26 27 27 27 27 27 27 28 28 29 28 27 27 27 27 28 28 29 29 29 28 28 27 27 26 26
26 27 27 27 27 26 26 25 25 25 24 24 24 24 24 24 25 25 26 26 26 26 26 26 26 26 26 26 27 27 28 28 28 28 27 26 26 26
25 26 26 26 26 26 25 25 24 24 24 23 23 23 24 24 24 25 25 25 25 25 25 25 25 24 24 24 24 25 25 26 26 26 26 26 26 26

GEFSNE_500_meanwind_276.txt.gz
Wind_Speed
25 25 25 25 26 26 27 27 28 28 28 28 29 29 29 29 28 29 28 28 29 30 30 30 30 31 31 31 31 32 32 32 32 32 31 31 31 31
26 27 27 27 28 28 28 28 28 28 28 28 29 29 29 29 29 29 28 29 29 30 31 32 32 32 32 32 32 33 33 33 33 32 32 31 31 31
26 27 27 28 28 29 29 30 29 29 30 30 29 29 30 30 30 30 30 30 30 31 31 32 32 33 33 33 32 32 32 32 33 32 32 31 32 32
28 28 28 28 29 29 29 29 30 30 30 30 30 30 30 30 30 31 31 31 32 32 32 32 33 33 33 33 33 33 33 33 33 32 32 32 32 33
27 28 27 28 29 29 29 29 29 30 31 31 31 30 30 29 29 30 31 31 32 33 33 32 33 33 34 34 34 34 33 33 33 33 32 32 32 32
26 27 27 29 29 30 30 29 29 30 30 30 30 29 29 30 30 30 31 31 32 32 33 33 33 33 33 33 34 34 33 33 33 33 33 33 32 32
27 28 29 30 30 30 30 30 29 29 28 28 29 29 29 30 30 29 30 30 31 32 32 32 33 33 33 33 32 32 33 33 32 33 33 33 32 32
29 30 30 31 31 30 30 29 28 28 27 27 27 28 29 29 30 30 30 30 31 31 32 32 33 33 33 33 33 32 32 32 32 31 32 32 33 33
30 30 30 30 30 30 29 28 28 28 28 28 28 29 29 30 30 30 30 31 32 31 32 32 32 31 32 33 33 32 32 32 32 31 31 32 33 34
30 30 29 28 29 29 28 28 29 29 28 29 29 30 31 31 31 31 31 31 31 31 32 31 31 31 32 32 33 33 33 33 33 33 32 32 32 33
29 28 28 28 28 29 28 28 28 28 29 30 30 31 31 31 31 31 31 32 31 31 32 31 31 31 31 31 31 32 33 33 33 34 33 33 32 33
29 29 29 29 29 29 29 29 29 29 30 30 31 31 31 31 31 31 32 31 31 31 31 32 32 32 32 32 32 32 32 32 32 33 33 33 33 33
31 31 30 30 30 30 29 29 29 29 30 30 30 30 30 30 30 31 31 31 31 31 31 31 31 32 32 31 31 31 32 31 31 32 31 31 32 33
30 30 30 30 29 29 28 28 29 29 30 29 29 29 29 29 30 30 31 31 31 30 30 30 30 31 32 32 32 32 32 32 31 31 32 31 31 32
30 30 30 30 29 28 28 28 28 28 28 28 28 28 28 29 29 29 30 29 30 30 30 30 31 32 32 31 30 30 30 31 31 31 31 31 30 30
30 30 29 29 28 28 28 29 29 28 28 28 28 28 28 28 28 28 29 29 29 29 30 31 31 32 31 30 30 29 29 30 30 30 30 30 30 29
28 27 27 27 27 28 28 28 28 28 29 29 28 28 28 27 27 28 28 29 29 30 30 30 30 30 30 29 29 29 29 28 28 28 28 28 28 28
26 26 27 27 27 27 28 28 28 28 28 29 28 28 28 27 27 27 27 27 28 30 30 30 30 29 29 29 28 27 27 26 26 26 26 26 26 26
26 27 27 27 26 26 27 27 27 28 28 28 28 27 28 27 27 27 27 27 28 28 29 29 29 29 29 29 28 28 27 26 25 25 25 25 25 25
26 26 26 25 25 26 26 26 27 27 27 27 27 27 26 27 27 27 27 26 26 26 27 27 28 28 28 28 28 27 26 25 25 24 25 24 24 24
26 26 26 26 25 26 26 26 26 26 26 25 25 25 25 25 25 25 25 25 25 25 25 25 26 26 26 26 25 25 25 25 24 24 23 24 24 24
25 26 26 26 26 26 26 26 25 25 25 25 24 24 24 24 24 24 24 24 23 23 23 23 24 24 25 24 24 23 24 24 24 24 24 24 24 23
25 26 26 26 25 25 25 26 26 25 25 25 24 24 24 24 23 23 23 22 22 23 23 23 23 23 23 23 23 23 23 23 23 23 23 24 24 23

GEFSNE_500_meanwind_282.txt.gz
Wind_Speed
24 25 25 25 25 24 24 25 25 26 26 26 27 27 27 27 28 30 31 31 32 31 30 30 30 30 30 30 30 30 30 30 30 30 30 29 29 29
23 24 24 24 24 24 25 26 26 26 27 27 27 27 28 28 28 29 30 30 30 31 31 31 31 31 31 31 30 30 30 31 31 31 31 31 31 31
22 22 22 23 24 24 24 25 26 27 27 27 28 28 28 29 30 30 29 30 30 30 31 31 32 32 32 32 32 32 31 31 32 32 32 32 32 32
22 22 22 23 24 24 25 26 27 27 27 28 28 29 30 29 29 29 29 30 31 31 32 33 33 34 33 32 32 32 32 32 33 33 33 33 33 33
22 22 23 23 24 25 26 26 26 27 27 28 28 29 29 29 28 29 29 30 30 30 31 33 34 34 34 34 33 34 33 33 34 34 34 35 35 34
23 23 23 23 24 24 25 25 26 26 26 26 26 26 27 27 28 28 28 29 30 30 30 31 32 32 33 34 34 34 34 33 33 34 34 34 35 36
23 23 23 23 24 24 24 25 25 26 26 26 26 26 26 27 28 29 29 29 29 30 30 30 31 32 32 33 33 33 34 34 34 34 34 34 34 35
24 24 24 24 24 24 25 25 26 26 26 26 26 27 27 27 27 27 28 28 29 30 30 31 31 31 32 32 33 33 34 34 35 35 35 34 34 34
24 25 24 24 25 25 25 26 26 26 26 26 26 27 27 27 27 27 27 28 28 29 30 30 31 32 32 32 32 33 33 33 34 34 35 34 34 33
26 25 25 26 26 26 27 27 27 26 26 26 26 26 26 27 27 27 27 27 28 28 29 30 30 31 31 31 32 32 32 33 33 34 34 34 35 34
26 26 26 27 27 27 27 27 27 26 27 27 26 26 26 27 27 27 28 28 28 29 30 30 30 30 30 30 31 31 32 32 33 34 33 34 35 35
27 27 27 27 27 28 27 27 27 27 28 28 27 26 26 27 28 29 29 29 28 29 29 29 29 30 30 30 30 31 31 31 32 33 33 33 34 35
28 28 28 28 27 28 28 27 27 28 28 28 27 27 27 28 28 29 29 29 29 29 29 29 29 30 30 30 30 31 31 31 31 32 33 33 33 33
28 29 29 29 28 28 28 29 29 28 27 27 27 28 28 28 29 29 29 28 28 28 29 30 30 30 30 29 29 30 30 31 31 31 31 32 33 33
28 28 29 29 29 28 29 29 29 28 28 28 29 29 29 30 30 30 29 28 28 28 29 29 29 30 29 29 30 30 30 29 29 30 31 31 31 31
28 28 28 29 29 29 30 29 29 29 29 28 29 29 29 29 29 29 29 28 28 28 29 29 28 28 28 28 29 29 29 29 29 29 30 30 30 30
29 28 28 28 29 29 30 29 29 29 29 29 28 28 28 28 28 28 29 29 28 28 28 29 29 28 28 28 28 28 28 28 29 29 29 29 29 29
27 27 28 29 29 29 28 28 28 28 28 28 28 28 28 27 27 28 28 28 28 28 28 29 29 29 28 28 27 27 27 27 27 27 27 27 27 28
27 27 28 28 29 29 28 28 28 27 27 27 27 27 27 27 27 27 27 27 28 28 29 29 29 29 28 27 26 27 27 27 27 27 26 26 26 27
26 26 27 27 27 27 26 26 26 26 27 27 27 27 27 26 26 26 26 26 27 28 28 28 28 27 27 26 25 25 25 25 25 25 26 26 26 26
25 25 26 25 25 25 25 25 25 25 25 25 25 25 25 25 25 25 25 26 26 26 26 26 26 26 26 25 24 24 24 24 24 24 24 25 25 25
25 25 24 24 24 24 24 24 25 24 24 25 25 24 24 24 24 25 25 25 25 25 24 24 24 24 24 24 23 23 23 23 23 23 23 23 23 24
25 24 25 25 24 24 24 25 24 24 24 24 24 24 24 24 24 24 24 24 23 23 23 23 23 23 23 23 23 22 22 23 23 22 22 22 22 22